ARG1001 SABE-SAZM

Flight info

Callsign ARG1001
Flight time 0h 54m
Altitude 27000
Route PTA8 GBE UW29 VOTRA VOTRA2U
Aircraft B738/M-SDFGHILORVW/S

Departure

Time 2026-04-26 23:19
Airport Aeroparque Jorge Newbery (SABE)

Arrival

Time 2026-04-27 00:13
Airport Ástor Piazzola International Airport (SAZM)
Time Latitude Longitude Altitude Speed Heading
2026-04-26 22:45 -34.56157 -58.41547 28 ft 0 kts 123°
2026-04-26 23:06 -34.56161 -58.41540 27 ft 3 kts 124°
2026-04-26 23:07 -34.56191 -58.41486 27 ft 12 kts 124°
2026-04-26 23:07 -34.56242 -58.41395 27 ft 12 kts 124°
2026-04-26 23:07 -34.56297 -58.41296 27 ft 15 kts 124°
2026-04-26 23:07 -34.56361 -58.41180 27 ft 17 kts 124°
2026-04-26 23:08 -34.56426 -58.41064 27 ft 19 kts 124°
2026-04-26 23:08 -34.56500 -58.40931 27 ft 13 kts 122°
2026-04-26 23:08 -34.56509 -58.40871 27 ft 8 kts 72°
2026-04-26 23:08 -34.56501 -58.40850 27 ft 0 kts 65°
2026-04-26 23:10 -34.56500 -58.40845 28 ft 3 kts 65°
2026-04-26 23:10 -34.56486 -58.40811 27 ft 5 kts 65°
2026-04-26 23:11 -34.56484 -58.40805 27 ft 0 kts 65°
2026-04-26 23:17 -34.56477 -58.40787 27 ft 6 kts 65°
2026-04-26 23:17 -34.56446 -58.40710 27 ft 9 kts 53°
2026-04-26 23:17 -34.56402 -58.40717 27 ft 4 kts 307°
2026-04-26 23:18 -34.56399 -58.40722 27 ft 0 kts 306°
2026-04-26 23:18 -34.56397 -58.40726 27 ft 2 kts 306°
2026-04-26 23:18 -34.56260 -58.40973 28 ft 76 kts 303°
2026-04-26 23:18 -34.55820 -58.41750 72 ft 138 kts 305°
2026-04-26 23:19 -34.55259 -58.42681 749 ft 141 kts 305°
2026-04-26 23:19 -34.54557 -58.43538 1403 ft 154 kts 328°
2026-04-26 23:19 -34.53479 -58.43679 2085 ft 171 kts 12°
2026-04-26 23:19 -34.52421 -58.42932 2732 ft 186 kts 35°
2026-04-26 23:20 -34.51317 -58.41920 3212 ft 214 kts 34°
2026-04-26 23:20 -34.50319 -58.40533 3901 ft 237 kts 64°
2026-04-26 23:20 -34.50071 -58.39484 4223 ft 251 kts 84°
2026-04-26 23:20 -34.50187 -58.38090 4726 ft 261 kts 110°
2026-04-26 23:21 -34.50944 -58.36095 5649 ft 269 kts 115°
2026-04-26 23:21 -34.51511 -58.33904 6609 ft 279 kts 102°
2026-04-26 23:21 -34.51942 -58.31611 7639 ft 284 kts 105°
2026-04-26 23:21 -34.52481 -58.29282 8663 ft 291 kts 107°
2026-04-26 23:22 -34.53052 -58.26953 9746 ft 294 kts 107°
2026-04-26 23:22 -34.53636 -58.24533 10581 ft 308 kts 108°
2026-04-26 23:22 -34.54566 -58.22095 11044 ft 332 kts 126°
2026-04-26 23:22 -34.56292 -58.20229 11757 ft 345 kts 153°
2026-04-26 23:23 -34.58557 -58.19204 12693 ft 351 kts 163°
2026-04-26 23:23 -34.60951 -58.18547 13705 ft 354 kts 178°
2026-04-26 23:23 -34.63338 -58.18863 14899 ft 350 kts 195°
2026-04-26 23:23 -34.65423 -58.19497 15812 ft 353 kts 196°
2026-04-26 23:24 -34.67338 -58.20026 16585 ft 358 kts 195°
2026-04-26 23:24 -34.69181 -58.20492 17322 ft 361 kts 194°
2026-04-26 23:24 -34.71218 -58.20999 18074 ft 365 kts 195°
2026-04-26 23:24 -34.73921 -58.21669 19036 ft 369 kts 195°
2026-04-26 23:25 -34.76305 -58.22255 19837 ft 374 kts 195°
2026-04-26 23:25 -34.78204 -58.22718 20446 ft 377 kts 195°
2026-04-26 23:25 -34.80579 -58.23296 21177 ft 381 kts 196°
2026-04-26 23:26 -34.87275 -58.24920 23683 ft 375 kts 197°
2026-04-26 23:26 -34.89806 -58.25534 24665 ft 371 kts 197°
2026-04-26 23:26 -34.92298 -58.26140 25589 ft 368 kts 197°
2026-04-26 23:26 -34.94775 -58.26743 26439 ft 365 kts 197°
2026-04-26 23:27 -34.97250 -58.27346 26926 ft 363 kts 197°
2026-04-26 23:27 -34.99762 -58.27961 26959 ft 367 kts 196°
2026-04-26 23:27 -35.02252 -58.28567 26963 ft 365 kts 195°
2026-04-26 23:27 -35.04746 -58.29174 26963 ft 364 kts 195°
2026-04-26 23:28 -35.07206 -58.29774 26964 ft 364 kts 195°
2026-04-26 23:28 -35.09719 -58.30288 26960 ft 367 kts 188°
2026-04-26 23:28 -35.12126 -58.30161 26969 ft 373 kts 177°
2026-04-26 23:28 -35.14677 -58.29713 26964 ft 373 kts 176°
2026-04-26 23:29 -35.17282 -58.29314 26963 ft 372 kts 178°
2026-04-26 23:29 -35.19842 -58.28970 26962 ft 372 kts 178°
2026-04-26 23:29 -35.22406 -58.28619 26962 ft 372 kts 178°
2026-04-26 23:29 -35.24985 -58.28260 26962 ft 372 kts 178°
2026-04-26 23:30 -35.27537 -58.27908 26961 ft 372 kts 178°
2026-04-26 23:30 -35.30132 -58.27552 26961 ft 372 kts 178°
2026-04-26 23:30 -35.32677 -58.27203 26960 ft 372 kts 178°
2026-04-26 23:30 -35.35275 -58.26847 26960 ft 372 kts 178°
2026-04-26 23:31 -35.37832 -58.26496 26958 ft 372 kts 178°
2026-04-26 23:31 -35.40405 -58.26144 26955 ft 372 kts 178°
2026-04-26 23:31 -35.42979 -58.25791 26951 ft 372 kts 178°
2026-04-26 23:31 -35.45549 -58.25439 26948 ft 372 kts 178°
2026-04-26 23:32 -35.48134 -58.25084 26944 ft 372 kts 178°
2026-04-26 23:32 -35.50677 -58.24736 26941 ft 372 kts 178°
2026-04-26 23:32 -35.53279 -58.24379 26939 ft 372 kts 178°
2026-04-26 23:32 -35.55820 -58.24030 26939 ft 372 kts 178°
2026-04-26 23:33 -35.58399 -58.23675 26939 ft 372 kts 178°
2026-04-26 23:33 -35.60942 -58.23325 26939 ft 372 kts 178°
2026-04-26 23:33 -35.63512 -58.22972 26939 ft 372 kts 178°
2026-04-26 23:33 -35.66099 -58.22616 26939 ft 372 kts 178°
2026-04-26 23:34 -35.68596 -58.22272 26939 ft 372 kts 178°
2026-04-26 23:34 -35.70981 -58.21943 26939 ft 372 kts 178°
2026-04-26 23:34 -35.73941 -58.21535 26939 ft 372 kts 178°
2026-04-26 23:34 -35.76600 -58.21168 26939 ft 372 kts 178°
2026-04-26 23:35 -35.79087 -58.20724 26936 ft 375 kts 171°
2026-04-26 23:35 -35.81431 -58.19865 26940 ft 378 kts 165°
2026-04-26 23:35 -35.83973 -58.18770 26939 ft 378 kts 166°
2026-04-26 23:35 -35.86362 -58.17796 26939 ft 378 kts 166°
2026-04-26 23:36 -35.88708 -58.16865 26939 ft 378 kts 166°
2026-04-26 23:36 -35.91133 -58.15896 26939 ft 378 kts 166°
2026-04-26 23:36 -35.93601 -58.14904 26939 ft 378 kts 166°
2026-04-26 23:36 -35.96021 -58.13933 26939 ft 378 kts 166°
2026-04-26 23:37 -35.98487 -58.12944 26939 ft 378 kts 166°
2026-04-26 23:37 -36.00932 -58.11964 26939 ft 378 kts 166°
2026-04-26 23:37 -36.03405 -58.10971 26939 ft 378 kts 166°
2026-04-26 23:37 -36.05819 -58.10002 26939 ft 378 kts 166°
2026-04-26 23:38 -36.08264 -58.09020 26939 ft 378 kts 166°
2026-04-26 23:38 -36.10299 -58.08202 26939 ft 378 kts 166°
2026-04-26 23:38 -36.12434 -58.07343 26939 ft 378 kts 166°
2026-04-26 23:39 -36.16388 -58.05752 26939 ft 378 kts 166°
2026-04-26 23:39 -36.18647 -58.04842 26939 ft 378 kts 166°
2026-04-26 23:39 -36.21109 -58.03850 26939 ft 377 kts 166°
2026-04-26 23:39 -36.23606 -58.02843 26939 ft 377 kts 166°
2026-04-26 23:40 -36.26044 -58.01859 26939 ft 377 kts 166°
2026-04-26 23:40 -36.28524 -58.00858 26939 ft 377 kts 166°
2026-04-26 23:40 -36.30961 -57.99873 26939 ft 377 kts 166°
2026-04-26 23:40 -36.33463 -57.98862 26931 ft 378 kts 166°
2026-04-26 23:41 -36.35960 -57.97852 26904 ft 378 kts 166°
2026-04-26 23:41 -36.38471 -57.96835 26874 ft 378 kts 166°
2026-04-26 23:41 -36.40963 -57.95825 26843 ft 377 kts 166°
2026-04-26 23:41 -36.43473 -57.94807 26809 ft 377 kts 166°
2026-04-26 23:42 -36.45964 -57.93797 26774 ft 377 kts 166°
2026-04-26 23:42 -36.50920 -57.91784 26724 ft 376 kts 166°
2026-04-26 23:42 -36.53434 -57.90762 26716 ft 376 kts 166°
2026-04-26 23:43 -36.55915 -57.89753 26709 ft 377 kts 166°
2026-04-26 23:43 -36.58399 -57.88742 26703 ft 377 kts 166°
2026-04-26 23:43 -36.60927 -57.87712 26696 ft 377 kts 166°
2026-04-26 23:43 -36.63394 -57.86706 26689 ft 377 kts 166°
2026-04-26 23:44 -36.65895 -57.85685 26482 ft 370 kts 166°
2026-04-26 23:44 -36.68325 -57.84691 25929 ft 367 kts 166°
2026-04-26 23:44 -36.70753 -57.83702 25303 ft 371 kts 166°
2026-04-26 23:44 -36.73179 -57.82711 24651 ft 369 kts 166°
2026-04-26 23:45 -36.75571 -57.81731 24127 ft 363 kts 166°
2026-04-26 23:45 -36.77972 -57.80749 23643 ft 367 kts 166°
2026-04-26 23:45 -36.80382 -57.79763 23137 ft 362 kts 166°
2026-04-26 23:45 -36.82739 -57.78795 22648 ft 355 kts 166°
2026-04-26 23:46 -36.85086 -57.77832 22163 ft 352 kts 165°
2026-04-26 23:46 -36.87420 -57.76877 21678 ft 354 kts 165°
2026-04-26 23:46 -36.89732 -57.75926 21190 ft 347 kts 165°
2026-04-26 23:46 -36.92000 -57.74993 20718 ft 341 kts 165°
2026-04-26 23:47 -36.94265 -57.74064 20249 ft 346 kts 165°
2026-04-26 23:47 -36.96517 -57.73138 19770 ft 339 kts 165°
2026-04-26 23:47 -36.98726 -57.72227 19305 ft 333 kts 165°
2026-04-26 23:47 -37.00949 -57.71314 18843 ft 339 kts 165°
2026-04-26 23:48 -37.03153 -57.70405 18393 ft 332 kts 165°
2026-04-26 23:48 -37.05304 -57.69517 17957 ft 329 kts 165°
2026-04-26 23:48 -37.07491 -57.68617 17498 ft 332 kts 165°
2026-04-26 23:48 -37.09653 -57.67723 17039 ft 325 kts 165°
2026-04-26 23:49 -37.11776 -57.66846 16593 ft 325 kts 165°
2026-04-26 23:49 -37.13945 -57.65951 16129 ft 325 kts 165°
2026-04-26 23:49 -37.16053 -57.65078 15679 ft 318 kts 165°
2026-04-26 23:49 -37.18138 -57.64215 15241 ft 319 kts 165°
2026-04-26 23:50 -37.20268 -57.63334 14781 ft 317 kts 164°
2026-04-26 23:50 -37.22336 -57.62476 14339 ft 311 kts 164°
2026-04-26 23:50 -37.24405 -57.61619 13864 ft 314 kts 164°
2026-04-26 23:50 -37.26471 -57.60763 13398 ft 310 kts 164°
2026-04-26 23:51 -37.28494 -57.59922 12960 ft 303 kts 164°
2026-04-26 23:51 -37.30539 -57.59074 12527 ft 309 kts 164°
2026-04-26 23:51 -37.32554 -57.58236 12088 ft 302 kts 164°
2026-04-26 23:51 -37.34457 -57.57444 11680 ft 299 kts 164°
2026-04-26 23:52 -37.36467 -57.56609 11246 ft 302 kts 164°
2026-04-26 23:52 -37.38432 -57.55791 10818 ft 295 kts 164°
2026-04-26 23:52 -37.40371 -57.54983 10404 ft 297 kts 164°
2026-04-26 23:52 -37.42327 -57.54169 10021 ft 293 kts 164°
2026-04-26 23:53 -37.44235 -57.53371 9831 ft 279 kts 164°
2026-04-26 23:53 -37.46019 -57.52626 9614 ft 268 kts 164°
2026-04-26 23:53 -37.47764 -57.51899 9261 ft 264 kts 165°
2026-04-26 23:53 -37.49535 -57.51162 8928 ft 271 kts 164°
2026-04-26 23:54 -37.51310 -57.50420 8577 ft 266 kts 165°
2026-04-26 23:54 -37.53059 -57.49686 8239 ft 261 kts 165°
2026-04-26 23:54 -37.54771 -57.48972 7914 ft 263 kts 165°
2026-04-26 23:54 -37.56501 -57.48252 7577 ft 260 kts 165°
2026-04-26 23:55 -37.58233 -57.47522 7244 ft 263 kts 165°
2026-04-26 23:55 -37.59589 -57.46951 6978 ft 259 kts 165°
2026-04-26 23:55 -37.61295 -57.46240 6652 ft 258 kts 165°
2026-04-26 23:55 -37.63023 -57.45516 6316 ft 262 kts 165°
2026-04-26 23:56 -37.64736 -57.44796 5981 ft 257 kts 165°
2026-04-26 23:56 -37.66418 -57.44096 5653 ft 252 kts 165°
2026-04-26 23:56 -37.68084 -57.43406 5337 ft 254 kts 166°
2026-04-26 23:56 -37.69810 -57.42693 4993 ft 258 kts 165°
2026-04-26 23:57 -37.71514 -57.41976 4662 ft 253 kts 165°
2026-04-26 23:57 -37.73147 -57.41275 4345 ft 248 kts 165°
2026-04-26 23:57 -37.74785 -57.40572 4169 ft 252 kts 166°
2026-04-26 23:57 -37.76470 -57.39887 4092 ft 256 kts 165°
2026-04-26 23:58 -37.78159 -57.39175 3995 ft 249 kts 165°
2026-04-26 23:58 -37.79788 -57.38480 3916 ft 250 kts 165°
2026-04-26 23:58 -37.81451 -57.37784 3820 ft 250 kts 166°
2026-04-26 23:58 -37.83080 -57.37103 3734 ft 250 kts 166°
2026-04-26 23:59 -37.84724 -57.36389 3625 ft 241 kts 165°
2026-04-26 23:59 -37.86272 -57.35720 3617 ft 228 kts 165°
2026-04-26 23:59 -37.87833 -57.35079 3637 ft 233 kts 166°
2026-04-26 23:59 -37.89321 -57.34451 3593 ft 218 kts 164°
2026-04-27 00:00 -37.90748 -57.33842 3539 ft 216 kts 166°
2026-04-27 00:00 -37.92144 -57.33270 3460 ft 211 kts 165°
2026-04-27 00:00 -37.93556 -57.32770 3383 ft 202 kts 179°
2026-04-27 00:00 -37.94845 -57.33044 3208 ft 183 kts 211°
2026-04-27 00:01 -37.95850 -57.33963 3014 ft 174 kts 218°
2026-04-27 00:01 -37.96851 -57.34788 2833 ft 168 kts 216°
2026-04-27 00:01 -37.97790 -57.35565 2646 ft 156 kts 219°
2026-04-27 00:01 -37.98641 -57.36314 2504 ft 143 kts 218°
2026-04-27 00:02 -37.99455 -57.37018 2368 ft 140 kts 215°
2026-04-27 00:02 -38.00268 -57.37718 2329 ft 147 kts 220°
2026-04-27 00:02 -38.01077 -57.38437 2266 ft 136 kts 217°
2026-04-27 00:02 -38.01742 -57.39310 2242 ft 138 kts 249°
2026-04-27 00:03 -38.01746 -57.40494 2174 ft 138 kts 292°
2026-04-27 00:03 -38.01280 -57.41589 2121 ft 136 kts 298°
2026-04-27 00:03 -38.00752 -57.42641 2098 ft 149 kts 302°
2026-04-27 00:03 -38.00207 -57.43697 2033 ft 142 kts 298°
2026-04-27 00:04 -37.99680 -57.44737 1986 ft 136 kts 300°
2026-04-27 00:04 -37.99171 -57.45784 1915 ft 138 kts 299°
2026-04-27 00:04 -37.98638 -57.46792 1804 ft 131 kts 301°
2026-04-27 00:04 -37.98152 -57.47691 1618 ft 124 kts 298°
2026-04-27 00:05 -37.97684 -57.48634 1461 ft 125 kts 296°
2026-04-27 00:05 -37.97223 -57.49566 1297 ft 126 kts 298°
2026-04-27 00:05 -37.96758 -57.50509 1120 ft 124 kts 299°
2026-04-27 00:05 -37.96279 -57.51439 942 ft 123 kts 298°
2026-04-27 00:06 -37.95846 -57.52373 793 ft 120 kts 296°
2026-04-27 00:06 -37.95375 -57.53272 629 ft 121 kts 299°
2026-04-27 00:06 -37.94926 -57.54228 509 ft 134 kts 295°
2026-04-27 00:06 -37.94478 -57.55226 335 ft 124 kts 299°
2026-04-27 00:07 -37.94008 -57.56154 137 ft 124 kts 300°
2026-04-27 00:07 -37.93570 -57.57023 65 ft 106 kts 302°
2026-04-27 00:07 -37.93097 -57.57908 403 ft 128 kts 300°
2026-04-27 00:07 -37.92573 -57.58899 1063 ft 149 kts 303°
2026-04-27 00:08 -37.91864 -57.60026 1662 ft 178 kts 319°
2026-04-27 00:08 -37.90618 -57.60390 2117 ft 201 kts
2026-04-27 00:08 -37.89308 -57.59565 2121 ft 213 kts 42°
2026-04-27 00:08 -37.88597 -57.57919 2199 ft 220 kts 76°
2026-04-27 00:09 -37.88561 -57.55993 2049 ft 220 kts 98°
2026-04-27 00:09 -37.88963 -57.54193 1908 ft 212 kts 116°
2026-04-27 00:09 -37.89629 -57.52492 1615 ft 214 kts 120°
2026-04-27 00:09 -37.90307 -57.50855 1210 ft 211 kts 118°
2026-04-27 00:10 -37.91036 -57.49320 931 ft 190 kts 134°
2026-04-27 00:10 -37.92097 -57.48493 822 ft 170 kts 174°
2026-04-27 00:10 -37.93161 -57.48615 793 ft 151 kts 201°
2026-04-27 00:10 -37.94126 -57.49028 940 ft 145 kts 207°
2026-04-27 00:11 -37.94897 -57.49728 1256 ft 143 kts 237°
2026-04-27 00:11 -37.95316 -57.50806 1360 ft 137 kts 247°
2026-04-27 00:11 -37.95572 -57.51950 1225 ft 125 kts 270°
2026-04-27 00:11 -37.95352 -57.53006 962 ft 126 kts 289°
2026-04-27 00:12 -37.95005 -57.53989 721 ft 125 kts 294°
2026-04-27 00:12 -37.94601 -57.54964 426 ft 120 kts 298°
2026-04-27 00:12 -37.94155 -57.55867 173 ft 122 kts 301°
2026-04-27 00:12 -37.93731 -57.56704 59 ft 101 kts 301°
2026-04-27 00:13 -37.93449 -57.57275 57 ft 53 kts 301°
2026-04-27 00:13 -37.93263 -57.57638 61 ft 47 kts 300°
2026-04-27 00:13 -37.93131 -57.57898 63 ft 15 kts 290°
2026-04-27 00:13 -37.93172 -57.57991 65 ft 11 kts 210°
2026-04-27 00:14 -37.93232 -57.58036 65 ft 8 kts 208°
2026-04-27 00:14 -37.93277 -57.58035 65 ft 6 kts 161°
2026-04-27 00:14 -37.93332 -57.58023 65 ft 5 kts 185°
2026-04-27 00:14 -37.93339 -57.58051 65 ft 4 kts 301°
2026-04-27 00:15 -37.93328 -57.58070 65 ft 1 kts 305°
2026-04-27 00:15 -37.93324 -57.58079 65 ft 1 kts 299°
2026-04-27 00:15 -37.93324 -57.58080 65 ft 0 kts 299°